Regional Weather Roundup
Issued by NWS

Home | Current Version | Previous Version | Text Only | Print | Product List | Glossary Off
Versions: 1 2 3 4 5 6 7 8 9 10 11 12 13 14 15 16 17 18 19 20 21 22 23 24 25 26 27 28 29 30 31 32 33 34 35 36 37 38 39 40 41 42 43 44 45 46 47 48 49 50

000
ASUS43 KBIS 161310
RWRND

NORTH DAKOTA REGIONAL WEATHER ROUNDUP
NATIONAL WEATHER SERVICE BISMARCK ND
800 AM CDT MON OCT 16 2017

NOTE: "FAIR" INDICATES FEW OR NO CLOUDS BELOW 12,000 FEET WITH NO
SIGNIFICANT WEATHER AND/OR OBSTRUCTIONS TO VISIBILITY.


NDZ001>003-009>011-017-161400-
NORTHWEST NORTH DAKOTA

CITY           SKY/WX    TMP DP  RH WIND       PRES   REMARKS
WILLISTON      CLOUDY    39  32  76 SW9       29.94F
MINOT          CLOUDY    44  31  60 SW14      29.89F
MINOT AFB      CLOUDY    43  31  61 SW14      29.86F
$$

NDZ018>021-031>035-040>046-161400-
SOUTHWEST NORTH DAKOTA

CITY           SKY/WX    TMP DP  RH WIND       PRES   REMARKS
BISMARCK       CLEAR     36  27  69 CALM      30.02F
DICKINSON      CLEAR     42  28  57 W10       29.99F
GARRISON         N/A     41  33  73 SW9       29.94F
HETTINGER ARPT CLEAR     37  26  64 W6        30.06F
$$

NDZ004>008-012>016-024-026-027-054-161400-
NORTHEAST NORTH DAKOTA

CITY           SKY/WX    TMP DP  RH WIND       PRES   REMARKS
GRAND FORKS    PTCLDY    34  30  85 S12       30.01F
GRND FRKS AFB  CLEAR     39  30  69 S13       30.00F
DEVILS LAKE    CLEAR     44  32  62 S18       29.94F
$$

NDZ022-023-025-028>030-036>039-047>053-161400-
SOUTHEAST NORTH DAKOTA

CITY           SKY/WX    TMP DP  RH WIND       PRES   REMARKS
FARGO          CLEAR     34  31  88 S9        30.10F
JAMESTOWN      CLEAR     36  30  79 S9        30.03F
$$





USA.gov is the U.S. government's official web portal to all federal, state and local government web resources and services.